User: anonymous   Login
Location: Unspecified
(0.0000°N, 0.0000°E)
Time: 01:18:05
(UTC+00:00)
Language:

NOSS 3-2 (C) - Orbit

View from above orbital plane
View from above orbital plane
View from above satellite
View from above satellite

Ground track
Ground track

The orbit data is extracted from the following two-line orbital elements,

1 28097U 03054C   24103.94926864 0.00000220  00000-0  17498-3 0    05
2 28097  63.3952  67.9314 0526207   3.2167 356.7441 13.40955461    05
Epoch (UTC): 12 April 2024 22:46:56
Eccentricity: 0.0526207
inclination: 63.3952°
perigee height: 712 km
apogee height: 1499 km
right ascension of ascending node: 67.9314°
argument of perigee: 3.2167°
revolutions per day: 13.40955461
mean anomaly at epoch: 356.7441°
orbit number at epoch: 0

The dashed part of the orbit path shows where the satellite is in the earth's shadow,  

DLR